Wetterdaten: Samstag, 22.11.2014
Datum Zeit Temp. A. Feuchte A. Luftdruck Regen Wind Richtung Richtung Sonnenschein ET UV Solar Taupunkt Windchill Windben Empfang
22.11.2014 00:00 2,4 C 76 % 1024,0 hPa 0,0 l/m 0,4 km/h (0 Bft) S 173 0 min 0,000 mm 0,0 UV-I 0 W/m -1,4 C 2,4 C 4,0 km/h (1 Bft) 0,00 %
22.11.2014 00:15 2,4 C 80 % 1023,7 hPa 0,0 l/m 7,2 km/h (2 Bft) SO 134 0 min 0,000 mm 0,0 UV-I 0 W/m -0,7 C 1,6 C 7,9 km/h (2 Bft) 0,00 %
22.11.2014 00:30 2,5 C 80 % 1023,5 hPa 0,0 l/m 0,0 km/h (0 Bft) O 89 0 min 0,000 mm 0,0 UV-I 0 W/m -0,6 C 2,5 C 0,0 km/h (0 Bft) 0,00 %
22.11.2014 00:45 2,5 C 80 % 1023,4 hPa 0,0 l/m 6,5 km/h (2 Bft) O-SO 118 0 min 0,000 mm 0,0 UV-I 0 W/m -0,6 C 2,4 C 11,9 km/h (2 Bft) 0,00 %
22.11.2014 01:00 2,5 C 80 % 1023,5 hPa 0,0 l/m 2,2 km/h (1 Bft) O-NO 73 0 min 0,000 mm 0,0 UV-I 0 W/m -0,6 C 2,5 C 4,0 km/h (1 Bft) 0,00 %
22.11.2014 01:15 2,5 C 80 % 1023,4 hPa 0,0 l/m 0,4 km/h (0 Bft) S 172 0 min 0,000 mm 0,0 UV-I 0 W/m -0,6 C 2,5 C 4,0 km/h (1 Bft) 0,00 %
22.11.2014 01:30 2,6 C 80 % 1023,3 hPa 0,0 l/m 0,4 km/h (0 Bft) N 353 0 min 0,000 mm 0,0 UV-I 0 W/m -0,5 C 2,6 C 4,0 km/h (1 Bft) 0,00 %
22.11.2014 01:45 2,5 C 80 % 1023,4 hPa 0,0 l/m 0,7 km/h (0 Bft) N-NO 23 0 min 0,000 mm 0,0 UV-I 0 W/m -0,6 C 2,5 C 4,0 km/h (1 Bft) 0,00 %
22.11.2014 02:00 2,5 C 80 % 1023,4 hPa 0,0 l/m 5,4 km/h (1 Bft) O 101 0 min 0,000 mm 0,0 UV-I 0 W/m -0,6 C 2,5 C 7,9 km/h (2 Bft) 0,00 %
22.11.2014 02:15 2,5 C 80 % 1023,4 hPa 0,0 l/m 0,0 km/h (0 Bft) O-SO 104 0 min 0,000 mm 0,0 UV-I 0 W/m -0,6 C 2,5 C 0,0 km/h (0 Bft) 0,00 %
22.11.2014 02:30 2,5 C 80 % 1023,2 hPa 0,0 l/m 6,5 km/h (2 Bft) O-SO 116 0 min 0,000 mm 0,0 UV-I 0 W/m -0,6 C 2,4 C 7,9 km/h (2 Bft) 0,00 %
22.11.2014 02:45 2,4 C 80 % 1023,3 hPa 0,0 l/m 0,0 km/h (0 Bft) SO 130 0 min 0,000 mm 0,0 UV-I 0 W/m -0,7 C 2,4 C 0,0 km/h (0 Bft) 0,00 %
22.11.2014 03:00 2,4 C 80 % 1023,3 hPa 0,0 l/m 0,0 km/h (0 Bft) S 173 0 min 0,000 mm 0,0 UV-I 0 W/m -0,7 C 2,4 C 0,0 km/h (0 Bft) 0,00 %
22.11.2014 03:15 2,4 C 80 % 1023,1 hPa 0,0 l/m 0,7 km/h (0 Bft) S 176 0 min 0,000 mm 0,0 UV-I 0 W/m -0,7 C 2,4 C 4,0 km/h (1 Bft) 0,00 %
22.11.2014 03:30 2,5 C 80 % 1023,2 hPa 0,0 l/m 0,7 km/h (0 Bft) O 93 0 min 0,000 mm 0,0 UV-I 0 W/m -0,6 C 2,5 C 4,0 km/h (1 Bft) 0,00 %
22.11.2014 03:45 2,5 C 79 % 1023,3 hPa 0,0 l/m 4,0 km/h (1 Bft) O-SO 113 0 min 0,000 mm 0,0 UV-I 0 W/m -0,8 C 2,5 C 7,9 km/h (2 Bft) 0,00 %
22.11.2014 04:00 2,6 C 79 % 1023,2 hPa 0,0 l/m 0,0 km/h (0 Bft) SO 125 0 min 0,000 mm 0,0 UV-I 0 W/m -0,7 C 2,6 C 0,0 km/h (0 Bft) 0,00 %
22.11.2014 04:15 2,6 C 79 % 1023,1 hPa 0,0 l/m 1,4 km/h (1 Bft) O-SO 108 0 min 0,000 mm 0,0 UV-I 0 W/m -0,7 C 2,6 C 4,0 km/h (1 Bft) 0,00 %
22.11.2014 04:30 2,6 C 79 % 1023,2 hPa 0,0 l/m 0,0 km/h (0 Bft) N 354 0 min 0,000 mm 0,0 UV-I 0 W/m -0,7 C 2,6 C 0,0 km/h (0 Bft) 0,00 %
22.11.2014 04:45 2,5 C 78 % 1023,1 hPa 0,0 l/m 0,0 km/h (0 Bft) W-SW 251 0 min 0,000 mm 0,0 UV-I 0 W/m -0,9 C 2,5 C 0,0 km/h (0 Bft) 0,00 %
22.11.2014 05:00 2,4 C 75 % 1023,1 hPa 0,0 l/m 3,2 km/h (1 Bft) SO 141 0 min 0,000 mm 0,0 UV-I 0 W/m -1,6 C 2,4 C 4,0 km/h (1 Bft) 0,00 %
22.11.2014 05:15 2,3 C 75 % 1023,2 hPa 0,0 l/m 0,4 km/h (0 Bft) O 100 0 min 0,000 mm 0,0 UV-I 0 W/m -1,7 C 2,3 C 4,0 km/h (1 Bft) 0,00 %
22.11.2014 05:30 2,3 C 75 % 1023,2 hPa 0,0 l/m 0,0 km/h (0 Bft) W-NW 299 0 min 0,000 mm 0,0 UV-I 0 W/m -1,7 C 2,3 C 0,0 km/h (0 Bft) 0,00 %
22.11.2014 05:45 2,2 C 75 % 1023,2 hPa 0,0 l/m 0,0 km/h (0 Bft) S 172 0 min 0,000 mm 0,0 UV-I 0 W/m -1,8 C 2,2 C 0,0 km/h (0 Bft) 0,00 %
22.11.2014 06:00 2,1 C 75 % 1023,4 hPa 0,0 l/m 0,4 km/h (0 Bft) O-SO 123 0 min 0,000 mm 0,0 UV-I 0 W/m -1,9 C 2,1 C 4,0 km/h (1 Bft) 0,00 %
22.11.2014 06:15 2,0 C 75 % 1023,5 hPa 0,0 l/m 0,0 km/h (0 Bft) NO 50 0 min 0,000 mm 0,0 UV-I 0 W/m -2,0 C 2,0 C 0,0 km/h (0 Bft) 0,00 %
22.11.2014 06:30 1,8 C 75 % 1023,6 hPa 0,0 l/m 0,0 km/h (0 Bft) N 356 0 min 0,000 mm 0,0 UV-I 0 W/m -2,1 C 1,8 C 0,0 km/h (0 Bft) 0,00 %
22.11.2014 06:45 1,7 C 75 % 1023,6 hPa 0,0 l/m 0,0 km/h (0 Bft) W-NW 297 0 min 0,000 mm 0,0 UV-I 0 W/m -2,2 C 1,7 C 0,0 km/h (0 Bft) 0,00 %
22.11.2014 07:00 1,6 C 76 % 1023,7 hPa 0,0 l/m 0,0 km/h (0 Bft) SW 227 0 min 0,000 mm 0,0 UV-I 0 W/m -2,2 C 1,6 C 0,0 km/h (0 Bft) 0,00 %
22.11.2014 07:15 1,6 C 76 % 1023,9 hPa 0,0 l/m 0,0 km/h (0 Bft) SW 219 0 min 0,000 mm 0,0 UV-I 0 W/m -2,2 C 1,6 C 0,0 km/h (0 Bft) 0,00 %
22.11.2014 07:30 1,7 C 76 % 1024,2 hPa 0,0 l/m 0,0 km/h (0 Bft) SO 128 0 min 0,000 mm 0,0 UV-I 0 W/m -2,1 C 1,7 C 0,0 km/h (0 Bft) 0,00 %
22.11.2014 07:45 1,9 C 74 % 1024,1 hPa 0,0 l/m 2,9 km/h (1 Bft) S 173 0 min 0,000 mm 0,0 UV-I 20 W/m -2,2 C 1,9 C 4,0 km/h (1 Bft) 0,00 %
22.11.2014 08:00 1,9 C 74 % 1024,4 hPa 0,0 l/m 0,0 km/h (0 Bft) S-SO 154 15 min 0,000 mm 0,0 UV-I 49 W/m -2,2 C 1,9 C 0,0 km/h (0 Bft) 0,00 %
22.11.2014 08:15 2,1 C 74 % 1024,1 hPa 0,0 l/m 4,7 km/h (1 Bft) O-SO 108 0 min 0,000 mm 1,0 UV-I 44 W/m -2,0 C 2,1 C 7,9 km/h (2 Bft) 0,00 %
22.11.2014 08:30 2,0 C 74 % 1024,5 hPa 0,0 l/m 0,0 km/h (0 Bft) SO 142 0 min 0,000 mm 1,0 UV-I 55 W/m -2,1 C 2,0 C 0,0 km/h (0 Bft) 0,00 %
22.11.2014 08:45 2,3 C 78 % 1024,4 hPa 0,0 l/m 0,0 km/h (0 Bft) S 176 0 min 0,000 mm 1,0 UV-I 55 W/m -1,1 C 2,3 C 0,0 km/h (0 Bft) 0,00 %
22.11.2014 09:00 2,9 C 76 % 1024,2 hPa 0,0 l/m 3,2 km/h (1 Bft) O 79 0 min 0,000 mm 1,0 UV-I 66 W/m -0,9 C 2,9 C 4,0 km/h (1 Bft) 0,00 %
22.11.2014 09:15 3,1 C 76 % 1024,4 hPa 0,0 l/m 0,0 km/h (0 Bft) O-SO 122 0 min 0,000 mm 1,0 UV-I 77 W/m -0,7 C 3,1 C 0,0 km/h (0 Bft) 0,00 %
22.11.2014 09:30 3,3 C 76 % 1024,5 hPa 0,0 l/m 1,8 km/h (1 Bft) O-SO 121 0 min 0,000 mm 1,0 UV-I 77 W/m -0,5 C 3,3 C 4,0 km/h (1 Bft) 0,00 %
22.11.2014 09:45 3,1 C 76 % 1024,9 hPa 0,0 l/m 0,0 km/h (0 Bft) W-SW 254 0 min 0,000 mm 1,0 UV-I 88 W/m -0,7 C 3,1 C 0,0 km/h (0 Bft) 0,00 %
22.11.2014 10:00 3,4 C 75 % 1024,9 hPa 0,0 l/m 5,4 km/h (1 Bft) O 83 0 min 0,000 mm 1,0 UV-I 88 W/m -0,6 C 3,4 C 7,9 km/h (2 Bft) 0,00 %
22.11.2014 10:15 3,5 C 74 % 1024,8 hPa 0,0 l/m 10,8 km/h (2 Bft) O 98 0 min 0,000 mm 1,0 UV-I 99 W/m -0,7 C -0,2 C 15,8 km/h (3 Bft) 0,00 %
22.11.2014 10:30 3,7 C 74 % 1024,9 hPa 0,0 l/m 1,4 km/h (1 Bft) S 176 0 min 0,000 mm 1,0 UV-I 99 W/m -0,5 C 3,7 C 4,0 km/h (1 Bft) 0,00 %
22.11.2014 10:45 3,9 C 74 % 1024,9 hPa 0,0 l/m 2,2 km/h (1 Bft) O 88 0 min 0,000 mm 1,0 UV-I 122 W/m -0,3 C 3,9 C 4,0 km/h (1 Bft) 0,00 %
22.11.2014 11:00 4,2 C 74 % 1024,7 hPa 0,0 l/m 0,4 km/h (0 Bft) SO 131 0 min 0,000 mm 2,0 UV-I 111 W/m -0,0 C 4,2 C 4,0 km/h (1 Bft) 0,00 %
22.11.2014 11:15 4,3 C 74 % 1024,5 hPa 0,0 l/m 1,4 km/h (1 Bft) NO 36 0 min 0,000 mm 1,0 UV-I 133 W/m 0,1 C 4,3 C 4,0 km/h (1 Bft) 0,00 %
22.11.2014 11:30 4,2 C 74 % 1024,5 hPa 0,0 l/m 0,0 km/h (0 Bft) S 174 0 min 0,000 mm 2,0 UV-I 144 W/m -0,0 C 4,2 C 0,0 km/h (0 Bft) 0,00 %
22.11.2014 11:45 4,5 C 73 % 1024,5 hPa 0,0 l/m 0,4 km/h (0 Bft) N 352 0 min 0,000 mm 2,0 UV-I 144 W/m 0,1 C 4,5 C 4,0 km/h (1 Bft) 0,00 %
22.11.2014 12:00 4,5 C 73 % 1024,5 hPa 0,0 l/m 3,2 km/h (1 Bft) O 87 0 min 0,000 mm 2,0 UV-I 155 W/m 0,1 C 4,5 C 7,9 km/h (2 Bft) 0,00 %
22.11.2014 12:15 4,7 C 72 % 1024,1 hPa 0,0 l/m 5,8 km/h (2 Bft) O-SO 105 0 min 0,000 mm 2,0 UV-I 177 W/m 0,1 C 4,7 C 7,9 km/h (2 Bft) 0,00 %
22.11.2014 12:30 4,7 C 72 % 1024,0 hPa 0,0 l/m 0,0 km/h (0 Bft) SW 216 0 min 0,000 mm 2,0 UV-I 188 W/m 0,1 C 4,7 C 0,0 km/h (0 Bft) 0,00 %
22.11.2014 12:45 5,0 C 72 % 1023,6 hPa 0,0 l/m 0,0 km/h (0 Bft) SO 131 0 min 0,000 mm 2,0 UV-I 177 W/m 0,4 C 5,0 C 0,0 km/h (0 Bft) 0,00 %
22.11.2014 13:00 5,4 C 71 % 1023,8 hPa 0,0 l/m 3,2 km/h (1 Bft) O-SO 115 0 min 0,000 mm 1,0 UV-I 166 W/m 0,6 C 5,4 C 7,9 km/h (2 Bft) 0,00 %
22.11.2014 13:15 5,5 C 70 % 1023,6 hPa 0,0 l/m 0,0 km/h (0 Bft) S-SO 147 0 min 0,000 mm 1,0 UV-I 155 W/m 0,5 C 5,5 C 0,0 km/h (0 Bft) 0,00 %
22.11.2014 13:30 5,4 C 72 % 1023,5 hPa 0,0 l/m 2,9 km/h (1 Bft) O 90 0 min 0,000 mm 1,0 UV-I 122 W/m 0,8 C 5,4 C 4,0 km/h (1 Bft) 0,00 %
22.11.2014 13:45 5,3 C 72 % 1023,6 hPa 0,0 l/m 0,0 km/h (0 Bft) S 188 0 min 0,000 mm 1,0 UV-I 122 W/m 0,7 C 5,3 C 0,0 km/h (0 Bft) 0,00 %
22.11.2014 14:00 5,3 C 72 % 1023,5 hPa 0,0 l/m 0,7 km/h (0 Bft) O 98 15 min 0,000 mm 1,0 UV-I 380 W/m 0,7 C 5,3 C 4,0 km/h (1 Bft) 0,00 %
22.11.2014 14:15 5,4 C 71 % 1023,5 hPa 0,0 l/m 5,8 km/h (2 Bft) O-SO 102 15 min 0,000 mm 1,0 UV-I 317 W/m 0,6 C 5,4 C 7,9 km/h (2 Bft) 0,00 %
22.11.2014 14:30 5,5 C 71 % 1023,5 hPa 0,0 l/m 4,0 km/h (1 Bft) O-SO 102 15 min 0,000 mm 1,0 UV-I 266 W/m 0,7 C 5,5 C 7,9 km/h (2 Bft) 0,00 %
22.11.2014 14:45 5,4 C 73 % 1023,3 hPa 0,0 l/m 0,4 km/h (0 Bft) SO 142 15 min 0,000 mm 1,0 UV-I 218 W/m 1,0 C 5,4 C 4,0 km/h (1 Bft) 0,00 %
22.11.2014 15:00 5,2 C 73 % 1023,4 hPa 0,0 l/m 0,7 km/h (0 Bft) NW 310 15 min 0,000 mm 1,0 UV-I 165 W/m 0,8 C 5,2 C 4,0 km/h (1 Bft) 0,00 %
22.11.2014 15:15 5,0 C 73 % 1023,4 hPa 0,0 l/m 1,8 km/h (1 Bft) O 82 15 min 0,000 mm 1,0 UV-I 108 W/m 0,6 C 5,0 C 4,0 km/h (1 Bft) 0,00 %
22.11.2014 15:30 4,9 C 73 % 1023,3 hPa 0,0 l/m 5,8 km/h (2 Bft) O-SO 121 15 min 0,000 mm 0,0 UV-I 63 W/m 0,5 C 4,9 C 7,9 km/h (2 Bft) 0,00 %
22.11.2014 15:45 4,7 C 75 % 1023,8 hPa 0,0 l/m 2,2 km/h (1 Bft) O-SO 121 0 min 0,000 mm 0,0 UV-I 17 W/m 0,7 C 4,7 C 4,0 km/h (1 Bft) 0,00 %
22.11.2014 16:00 4,5 C 75 % 1023,6 hPa 0,0 l/m 1,4 km/h (1 Bft) O-SO 102 0 min 0,000 mm 0,0 UV-I 0 W/m 0,5 C 4,5 C 4,0 km/h (1 Bft) 0,00 %
22.11.2014 16:15 4,2 C 76 % 1023,7 hPa 0,0 l/m 0,0 km/h (0 Bft) O-SO 114 0 min 0,000 mm 0,0 UV-I 0 W/m 0,4 C 4,2 C 0,0 km/h (0 Bft) 0,00 %
22.11.2014 16:30 3,8 C 77 % 1023,7 hPa 0,0 l/m 0,0 km/h (0 Bft) S-SO 153 0 min 0,000 mm 0,0 UV-I 0 W/m 0,1 C 3,8 C 0,0 km/h (0 Bft) 0,00 %
22.11.2014 16:45 3,6 C 78 % 1023,9 hPa 0,0 l/m 0,0 km/h (0 Bft) O-NO 72 0 min 0,000 mm 0,0 UV-I 0 W/m 0,1 C 3,6 C 0,0 km/h (0 Bft) 0,00 %
22.11.2014 17:00 3,3 C 80 % 1024,2 hPa 0,0 l/m 0,0 km/h (0 Bft) S 172 0 min 0,000 mm 0,0 UV-I 0 W/m 0,2 C 3,3 C 0,0 km/h (0 Bft) 0,00 %
22.11.2014 17:15 3,0 C 80 % 1024,4 hPa 0,0 l/m 1,4 km/h (1 Bft) O-SO 107 0 min 0,000 mm 0,0 UV-I 0 W/m -0,1 C 3,0 C 4,0 km/h (1 Bft) 0,00 %
22.11.2014 17:30 2,9 C 80 % 1024,4 hPa 0,0 l/m 0,0 km/h (0 Bft) S 190 0 min 0,000 mm 0,0 UV-I 0 W/m -0,2 C 2,9 C 0,0 km/h (0 Bft) 0,00 %
22.11.2014 17:45 2,7 C 80 % 1024,3 hPa 0,0 l/m 4,7 km/h (1 Bft) SO 128 0 min 0,000 mm 0,0 UV-I 0 W/m -0,4 C 2,7 C 7,9 km/h (2 Bft) 0,00 %
22.11.2014 18:00 2,5 C 81 % 1024,4 hPa 0,0 l/m 0,0 km/h (0 Bft) O 91 0 min 0,000 mm 0,0 UV-I 0 W/m -0,4 C 2,5 C 0,0 km/h (0 Bft) 0,00 %
22.11.2014 18:15 2,5 C 81 % 1024,6 hPa 0,0 l/m 0,4 km/h (0 Bft) O-NO 76 0 min 0,000 mm 0,0 UV-I 0 W/m -0,4 C 2,5 C 4,0 km/h (1 Bft) 0,00 %
22.11.2014 18:30 2,3 C 77 % 1024,7 hPa 0,0 l/m 0,0 km/h (0 Bft) O-SO 114 0 min 0,000 mm 0,0 UV-I 0 W/m -1,3 C 2,3 C 0,0 km/h (0 Bft) 0,00 %
22.11.2014 18:45 2,0 C 78 % 1025,0 hPa 0,0 l/m 0,0 km/h (0 Bft) N 355 0 min 0,000 mm 0,0 UV-I 0 W/m -1,4 C 2,0 C 0,0 km/h (0 Bft) 0,00 %
22.11.2014 19:00 2,0 C 78 % 1024,9 hPa 0,0 l/m 0,0 km/h (0 Bft) S-SW 194 0 min 0,000 mm 0,0 UV-I 0 W/m -1,4 C 2,0 C 0,0 km/h (0 Bft) 0,00 %
22.11.2014 19:15 1,9 C 78 % 1025,1 hPa 0,0 l/m 2,2 km/h (1 Bft) O-SO 103 0 min 0,000 mm 0,0 UV-I 0 W/m -1,5 C 1,9 C 4,0 km/h (1 Bft) 0,00 %
22.11.2014 19:30 1,7 C 78 % 1025,1 hPa 0,0 l/m 0,0 km/h (0 Bft) S 173 0 min 0,000 mm 0,0 UV-I 0 W/m -1,7 C 1,7 C 0,0 km/h (0 Bft) 0,00 %
22.11.2014 19:45 1,6 C 78 % 1025,1 hPa 0,0 l/m 0,4 km/h (0 Bft) SO 130 0 min 0,000 mm 0,0 UV-I 0 W/m -1,8 C 1,6 C 4,0 km/h (1 Bft) 0,00 %
22.11.2014 20:00 1,8 C 78 % 1025,1 hPa 0,0 l/m 0,0 km/h (0 Bft) O-SO 117 0 min 0,000 mm 0,0 UV-I 0 W/m -1,6 C 1,8 C 0,0 km/h (0 Bft) 0,00 %
22.11.2014 20:15 1,7 C 78 % 1025,2 hPa 0,0 l/m 0,0 km/h (0 Bft) O 82 0 min 0,000 mm 0,0 UV-I 0 W/m -1,7 C 1,7 C 0,0 km/h (0 Bft) 0,00 %
22.11.2014 20:30 1,6 C 78 % 1025,2 hPa 0,0 l/m 0,0 km/h (0 Bft) S 172 0 min 0,000 mm 0,0 UV-I 0 W/m -1,8 C 1,6 C 0,0 km/h (0 Bft) 0,00 %
22.11.2014 20:45 1,6 C 78 % 1025,6 hPa 0,0 l/m 0,0 km/h (0 Bft) S 182 0 min 0,000 mm 0,0 UV-I 0 W/m -1,8 C 1,6 C 0,0 km/h (0 Bft) 0,00 %
22.11.2014 21:00 1,5 C 78 % 1025,7 hPa 0,0 l/m 0,0 km/h (0 Bft) SO 128 0 min 0,000 mm 0,0 UV-I 0 W/m -1,9 C 1,5 C 0,0 km/h (0 Bft) 0,00 %
22.11.2014 21:15 1,5 C 78 % 1025,6 hPa 0,0 l/m 0,0 km/h (0 Bft) SW 228 0 min 0,000 mm 0,0 UV-I 0 W/m -1,9 C 1,5 C 0,0 km/h (0 Bft) 0,00 %
22.11.2014 21:30 1,9 C 78 % 1025,5 hPa 0,0 l/m 4,0 km/h (1 Bft) O 83 0 min 0,000 mm 0,0 UV-I 0 W/m -1,5 C 1,9 C 4,0 km/h (1 Bft) 0,00 %
22.11.2014 21:45 2,2 C 78 % 1025,3 hPa 0,0 l/m 1,4 km/h (1 Bft) O 96 0 min 0,000 mm 0,0 UV-I 0 W/m -1,2 C 2,2 C 4,0 km/h (1 Bft) 0,00 %
22.11.2014 22:00 2,1 C 78 % 1025,5 hPa 0,0 l/m 0,0 km/h (0 Bft) SO 129 0 min 0,000 mm 0,0 UV-I 0 W/m -1,3 C 2,1 C 0,0 km/h (0 Bft) 0,00 %
22.11.2014 22:15 2,2 C 78 % 1025,3 hPa 0,0 l/m 2,9 km/h (1 Bft) O-SO 107 0 min 0,000 mm 0,0 UV-I 0 W/m -1,2 C 2,2 C 4,0 km/h (1 Bft) 0,00 %
22.11.2014 22:30 2,4 C 82 % 1025,3 hPa 0,0 l/m 1,8 km/h (1 Bft) O-SO 117 0 min 0,000 mm 0,0 UV-I 0 W/m -0,4 C 2,4 C 4,0 km/h (1 Bft) 0,00 %
22.11.2014 22:45 2,5 C 82 % 1025,1 hPa 0,0 l/m 2,9 km/h (1 Bft) O-NO 62 0 min 0,000 mm 0,0 UV-I 0 W/m -0,3 C 2,5 C 7,9 km/h (2 Bft) 0,00 %
22.11.2014 23:00 2,5 C 82 % 1025,4 hPa 0,0 l/m 4,0 km/h (1 Bft) O 96 0 min 0,000 mm 0,0 UV-I 0 W/m -0,3 C 2,5 C 4,0 km/h (1 Bft) 0,00 %
22.11.2014 23:15 2,5 C 82 % 1025,4 hPa 0,0 l/m 0,7 km/h (0 Bft) O-SO 117 0 min 0,000 mm 0,0 UV-I 0 W/m -0,3 C 2,5 C 4,0 km/h (1 Bft) 0,00 %
22.11.2014 23:30 2,5 C 82 % 1025,5 hPa 0,0 l/m 1,4 km/h (1 Bft) SO 124 0 min 0,000 mm 0,0 UV-I 0 W/m -0,3 C 2,5 C 4,0 km/h (1 Bft) 0,00 %
22.11.2014 23:45 2,5 C 82 % 1025,5 hPa 0,0 l/m 2,9 km/h (1 Bft) O 90 0 min 0,000 mm 0,0 UV-I 0 W/m -0,3 C 2,5 C 4,0 km/h (1 Bft) 0,00 %
_ Min-Zeit 21:00 13:15 03:15 - 00:30 - - - - - - 06:45 10:15 00:30 00:00
Minimum _ 1,5 C 70 % 1023,1 hPa - 0,0 km/h (0 Bft) - - - - - - -2,2 C -0,2 C 0,0 km/h (0 Bft) 0,00 %
_ Max-Zeit 13:15 22:30 21:00 00:00 10:15 - - 08:00 00:00 11:00 14:00 14:45 13:15 10:15 00:00
Maximum _ 5,5 C 82 % 1025,7 hPa 0,0 l/m 10,8 km/h
O (2 Bft)
- - 15 min 0,000 mm 2,0 UV-I 380 W/m 1,0 C 5,5 C 15,8 km/h
O (3 Bft)
0,00 %
Durchschnitt _ 3,0 C 77 % 1024,2 hPa #0,0 l/m 1,5 km/h (1 Bft) O-SO - #2:00 h #0,000 mm 1,2 UV-I 129 W/m -0,7 C 2,9 C 3,0 km/h (1 Bft) 0,00 %